Zurück zum Katalog

STARLINK-30208

AktivKommunikationVLEO
NORAD 57415·PAYLOAD·🇺🇸 United States

Gestartet Jul 20, 2023 von Vandenberg Space Force Base

Loading…

Nächste Überflüge (nächste 24 Stunden)

TLE

AktuellSource: CelesTrak SupGP

Epoche: Sep 14, 2026, 22:00 UTC

1 57415C 23102M   26257.91715278  .00031789  00000+0  11517-2 0  2573
2 57415  43.0028 259.8703 0001651 266.0112 341.2903 15.27554740    19

Verfolge STARLINK-30208 in Echtzeit mit AllMySat

Download on the App Store